Fort Polk, LA

7:21 AM CDT on October 15, 2019 (GMT -0500)
Fort Polk

Weather History for KAQV - August, 2019

Change the Weather History Date:

Friday, August 9, 2019

  Actual Average (KPOE) Record (KPOE)
Temperature  
Mean Temperature 86 °F -  
Max Temperature 97 °F 89 °F 101 °F (2015)
Min Temperature 77 °F 71 °F 69 °F (2003)
Cooling Degree Days 21    
Growing Degree Days 36 (Base 50)    
Moisture  
Dew Point 75 °F    
Average Humidity 76    
Maximum Humidity 94    
Minimum Humidity 44    
Precipitation  
Precipitation 0.00 in - - ()
Sea Level Pressure  
Sea Level Pressure 29.95 in    
Wind  
Wind Speed 3 mph (SSW)    
Max Wind Speed 8 mph    
Max Gust Speed -    
Visibility 8 miles    
Events      
Averages and records for this station are not official NWS values.
T = Trace of Precipitation, MM = Missing Value Source: NWS Daily Summary

Daily Weather History Graph

Daily Weather History Graph

Search for Another Location

Airport or City:

Astronomy

Aug. 09, 2019 Rise Set
Actual Time 6:34 AM CDT 8:02 PM CDT
Civil Twilight 6:08 AM CDT 8:28 PM CDT
Nautical Twilight 5:37 AM CDT 8:59 PM CDT
Astronomical Twilight 5:05 AM CDT 9:31 PM CDT
Moon 3:39 PM CDT (8/9) 1:34 AM CDT (8/9)
Length of Visible Light 14h 19m
Length of Day
13h 27m
Waxing Gibbous, 70% of the Moon is Illuminated
Aug 9
Waxing Gibbous
Aug 15
Full
Aug 23
Last Quarter
Aug 30
New
Sep 5
First Quarter

Hourly Weather History & Observations

Time (CDT) Temp. Heat Index Dew Point Humidity Pressure Visibility Wind Dir Wind Speed Gust Speed Precip Events Conditions
1:56 AM 79.0 °F - 75.9 °F 90% 29.92 in 9.0 mi Calm Calm - N/A   Clear
2:56 AM 78.1 °F - 75.0 °F 90% 29.92 in 7.0 mi Calm Calm - N/A   Clear
3:48 AM 77.0 °F - 75.0 °F 94% 29.93 in 5.0 mi South 3.5 mph - N/A   Mostly Cloudy
3:56 AM 77.0 °F - 75.0 °F 94% 29.92 in 5.0 mi Calm Calm - N/A   Mostly Cloudy
4:49 AM 78.1 °F - 75.9 °F 93% 29.94 in 5.0 mi Calm Calm - N/A   Mostly Cloudy
4:56 AM 78.1 °F - 75.9 °F 93% 29.93 in 4.0 mi South 3.5 mph - N/A   Mostly Cloudy
5:08 AM 78.1 °F - 75.9 °F 93% 29.93 in 4.0 mi Calm Calm - N/A   Overcast
5:26 AM 78.1 °F - 75.9 °F 93% 29.94 in 4.0 mi Calm Calm - N/A   Overcast
5:56 AM 79.0 °F - 77.0 °F 94% 29.93 in 4.0 mi Variable 3.5 mph - N/A   Overcast
6:56 AM 79.0 °F - 77.0 °F 94% 29.95 in 5.0 mi SSW 4.6 mph - N/A   Overcast
7:06 AM 80.1 °F 85.8 °F 77.0 °F 90% 29.97 in 6.0 mi Variable 3.5 mph - N/A   Overcast
7:56 AM 80.1 °F 85.8 °F 77.0 °F 90% 29.97 in 9.0 mi Variable 4.6 mph - N/A   Overcast
8:35 AM 81.0 °F 87.3 °F 75.9 °F 85% 29.98 in 10.0 mi Variable 5.8 mph - N/A   Overcast
8:45 AM 82.0 °F 90.2 °F 77.0 °F 85% 29.99 in 10.0 mi Variable 3.5 mph - N/A   Overcast
8:56 AM 82.0 °F 89.4 °F 75.9 °F 82% 29.98 in 10.0 mi Variable 4.6 mph - N/A   Overcast
9:06 AM 82.0 °F 89.4 °F 75.9 °F 82% 29.99 in 10.0 mi Variable 3.5 mph - N/A   Overcast
9:38 AM 84.0 °F 93.7 °F 77.0 °F 79% 29.99 in 10.0 mi Variable 4.6 mph - N/A   Overcast
9:56 AM 84.9 °F 95.3 °F 77.0 °F 77% 29.99 in 10.0 mi Variable 6.9 mph - N/A   Mostly Cloudy
10:23 AM 87.1 °F 97.3 °F 75.9 °F 69% 30.00 in 10.0 mi South 8.1 mph - N/A   Scattered Clouds
10:30 AM 88.0 °F 100.2 °F 77.0 °F 70% 30.00 in 9.0 mi Variable 6.9 mph - N/A   Mostly Cloudy
10:56 AM 88.0 °F 98.5 °F 75.9 °F 67% 29.99 in 10.0 mi Variable 6.9 mph - N/A   Mostly Cloudy
11:08 AM 89.1 °F 100.2 °F 75.9 °F 65% 30.00 in 10.0 mi Variable 5.8 mph - N/A   Scattered Clouds
11:56 AM 91.0 °F 101.6 °F 75.0 °F 59% 29.99 in 10.0 mi Variable 5.8 mph - N/A   Mostly Cloudy
12:56 PM 91.9 °F 101.3 °F 73.9 °F 55% 29.98 in 10.0 mi Variable 5.8 mph - N/A   Partly Cloudy
1:56 PM 93.0 °F 103.2 °F 73.9 °F 54% 29.96 in 6.0 mi Variable 3.5 mph - N/A   Haze
2:56 PM 95.0 °F 102.5 °F 71.1 °F 46% 29.94 in 10.0 mi Variable 6.9 mph - N/A   Partly Cloudy
3:56 PM 95.0 °F 101.3 °F 70.0 °F 44% 29.91 in 10.0 mi Variable 4.6 mph - N/A   Partly Cloudy
4:56 PM 95.0 °F 103.2 °F 72.0 °F 47% 29.90 in 10.0 mi Variable 4.6 mph - N/A   Clear
5:56 PM 95.0 °F 103.2 °F 72.0 °F 47% 29.90 in 10.0 mi Variable 3.5 mph - N/A   Partly Cloudy
6:56 PM 91.9 °F 99.5 °F 72.0 °F 52% 29.90 in 10.0 mi South 4.6 mph - N/A   Clear
7:56 PM 87.1 °F 95.4 °F 73.9 °F 65% 29.90 in 10.0 mi Calm Calm - N/A   Clear
8:56 PM 84.0 °F 91.2 °F 73.9 °F 72% 29.91 in 10.0 mi Calm Calm - N/A   Clear
9:56 PM 82.9 °F 89.4 °F 73.9 °F 74% 29.92 in 10.0 mi Variable 3.5 mph - N/A   Clear
10:56 PM 82.0 °F 88.6 °F 75.0 °F 79% 29.93 in 10.0 mi Variable 4.6 mph - N/A   Clear
11:56 PM 81.0 °F 86.7 °F 75.0 °F 82% 29.94 in 10.0 mi Calm Calm - N/A   Clear